Location: Newark
(47.5000°N, 4.6167°E)
Time: 10:14:43
(UTC+00:00)

ISS - Pass Details

Date: 04 December 2021
Orbit: 413 x 422 km, 51.6° (Epoch: 19 January)

Event Time Altitude Azimuth Distance (km) Brightness Sun altitude
Rises 16:51:58 0° 293° (WNW) 2,384 0.8 -9.9°
Reaches altitude 10° 16:54:06 10° 296° (WNW) 1,515 -0.3 -10.2°
Maximum altitude 16:57:28 63° 18° (NNE) 478 -3.7 -10.8°
Enters shadow 17:00:16 14° 99° (E) 1,278 -1.8 -11.2°
